Location: Ladirat
(44.8151°N, 1.9702°E)
Time: 20:53:51
(UTC+00:00)

Cosmos 909 Rocket - Pass Details

Date: 15 May 2026
Orbit: 989 x 2090 km, 65.9° (Epoch: 7 June)

Event Time Altitude Azimuth Distance (km) Brightness Sun altitude
Rises 20:10:38 0° 209° (SSW) 3,816 7.0 -9.2°
Reaches altitude 10° 20:13:17 10° 209° (SSW) 2,802 6.3 -9.6°
Maximum altitude 20:19:37 84° 123° (ESE) 1,000 4.0 -10.4°
Drops below altitude 10° 20:26:04 10° 35° (NE) 2,838 6.5 -11.3°
Sets 20:28:45 0° 35° (NE) 3,868 7.2 -11.6°
